1484143200.62,30388,6.44,72330.3,-11.95,-45.95,-46.15,0,*67
1484143201.9,30389,6.44,72324.5,-11.95,-46.15,-46.41,0,*6C
1484143203.15,30390,6.44,72322.3,-11.91,-46.15,-46.35,0,*63
1484143204.37,30391,6.44,72324.3,-11.95,-46.01,-46.35,0,*63
1484143205.62,30392,6.44,72326.0,-11.95,-46.15,-46.35,0,*65
1484143206.9,30393,6.44,72326.3,-11.95,-46.15,-46.41,0,*67
1484143208.12,30394,6.44,72324.3,-11.95,-45.95,-46.35,0,*68
1484143209.39,30395,6.44,72324.8,-11.91,-45.81,-46.15,0,*6A
1484143210.6,30396,6.44,72324.8,-11.95,-45.95,-46.35,0,*6A
1484143211.85,30397,6.44,72318.8,-11.91,-45.95,-46.15,0,*6D
1484143213.1,30398,6.44,72324.8,-11.95,-46.01,-46.41,0,*69
1484143214.32,30399,6.44,72322.5,-11.95,-46.01,-46.35,0,*6B
1484143215.55,30400,6.44,72320.5,-11.95,-46.35,-46.55,0,*6D
1484143216.77,30401,6.44,72324.8,-11.95,-46.21,-46.55,0,*69
1484143218.05,30402,6.44,72320.8,-11.97,-46.41,-46.61,0,*69
1484143219.34,30403,6.44,72324.3,-11.97,-46.49,-46.61,0,*60
1484143220.61,30404,6.44,72320.3,-11.99,-46.41,-46.69,0,*69
1484143221.9,30405,6.44,72320.8,-11.97,-46.27,-46.61,0,*6E
1484143223.17,30406,6.44,72322.5,-11.99,-46.07,-46.49,0,*6B
1484143224.44,30407,6.44,72322.0,-11.97,-46.01,-46.41,0,*6A
1484143225.69,30408,6.44,72326.0,-11.99,-46.01,-46.27,0,*6B
1484143226.9,30409,6.44,72320.5,-11.99,-45.87,-46.21,0,*61
1484143228.15,30410,6.44,72324.0,-11.99,-46.01,-46.27,0,*62
1484143229.42,30411,6.44,72324.8,-11.99,-46.07,-46.27,0,*65
1484143230.67,30412,6.44,72320.3,-11.95,-46.15,-46.35,0,*6A
1484143231.94,30413,6.44,72320.5,-11.99,-46.27,-46.49,0,*6D
1484143233.24,30414,6.44,72320.5,-11.97,-46.07,-46.41,0,*6E
1484143234.5,30415,6.44,72318.3,-11.99,-46.07,-46.41,0,*61
1484143235.75,30416,6.44,72318.0,-11.99,-46.01,-46.41,0,*64
1484143237.0,30417,6.44,72320.5,-11.99,-46.27,-46.55,0,*64
1484143238.21,30418,6.44,72320.5,-11.99,-45.87,-46.21,0,*61
1484143239.45,30419,6.44,72318.3,-11.99,-46.07,-46.35,0,*6E
1484143240.7,30420,6.44,72316.5,-11.99,-46.07,-46.35,0,*64
1484143241.91,30421,6.44,72318.8,-11.99,-45.87,-46.21,0,*6B
1484143243.15,30422,6.44,72318.8,-11.99,-45.87,-46.27,0,*6E
1484143244.4,30423,6.44,72318.0,-11.99,-45.87,-46.07,0,*6D
1484143245.64,30424,6.44,72314.5,-11.99,-46.01,-46.27,0,*65
1484143246.89,30425,6.44,72316.0,-11.99,-46.01,-46.27,0,*64
1484143248.13,30426,6.44,72318.3,-11.99,-45.87,-46.07,0,*68
1484143249.38,30427,6.44,72322.8,-11.99,-46.21,-46.49,0,*6C
1484143250.68,30428,6.38,72312.3,-12.01,-46.27,-46.49,0,*67
1484143251.92,30429,6.44,72316.3,-11.99,-46.07,-46.55,0,*6B
1484143253.16,30430,6.44,72318.3,-11.99,-45.95,-46.27,0,*6E
1484143254.44,30431,6.44,72318.8,-12.01,-45.95,-46.15,0,*6C
1484143255.68,30432,6.44,72320.3,-11.99,-45.95,-46.15,0,*6D
1484143256.96,30433,6.44,72318.8,-12.01,-45.95,-46.15,0,*6E
1484143258.23,30434,6.44,72322.3,-11.99,-46.07,-46.15,0,*63
1484143259.5,30435,6.44,72316.8,-12.01,-46.27,-46.55,0,*66
1484143260.74,30436,6.44,72316.8,-11.99,-45.95,-46.27,0,*68
1484143262.02,30437,6.44,72320.0,-11.99,-46.07,-46.15,0,*60
1484143263.26,30438,6.44,72320.0,-12.01,-45.95,-46.35,0,*67
1484143264.56,30439,6.44,72322.0,-12.01,-46.07,-46.27,0,*6D
1484143265.83,30440,6.44,72316.0,-12.01,-46.27,-46.55,0,*64
1484143267.1,30441,6.44,72318.8,-12.01,-45.95,-46.15,0,*6B
1484143268.37,30442,6.44,72318.0,-12.01,-45.95,-46.27,0,*69
1484143269.64,30443,6.44,72322.3,-12.01,-45.95,-46.27,0,*68
1484143270.91,30444,6.44,72320.5,-12.01,-45.95,-46.27,0,*6F
1484143272.18,30445,6.44,72318.0,-12.01,-45.95,-46.07,0,*6C
1484143273.45,30446,6.44,72320.3,-12.01,-45.81,-45.87,0,*61
1484143274.71,30447,6.44,72318.0,-12.01,-45.87,-46.07,0,*6D
1484143275.98,30448,6.44,72314.8,-12.01,-45.95,-46.27,0,*63
1484143277.23,30449,6.44,72318.5,-12.01,-45.95,-46.35,0,*61
1484143278.5,30450,6.44,72318.5,-12.01,-45.95,-46.15,0,*6B
1484143279.77,30451,6.44,72318.8,-12.01,-45.95,-46.15,0,*6A
1484143280.99,30452,6.44,72320.3,-12.05,-45.95,-46.21,0,*6A
1484143282.23,30453,6.44,72316.8,-12.07,-45.95,-46.21,0,*69
1484143283.47,30454,6.44,72320.5,-12.05,-45.95,-46.15,0,*6B
1484143284.72,30455,6.44,72322.8,-12.05,-45.95,-46.15,0,*6A
1484143285.99,30456,6.44,72322.8,-12.01,-45.87,-46.07,0,*6D
1484143287.23,30457,6.44,72320.0,-12.07,-45.95,-46.21,0,*6D
1484143288.47,30458,6.44,72322.0,-12.05,-45.87,-46.15,0,*64
1484143289.68,30459,6.44,72320.3,-12.05,-45.95,-45.95,0,*6D
1484143290.9,30460,6.44,72322.0,-12.05,-45.87,-46.01,0,*6A
1484143292.15,30461,6.44,72320.0,-12.07,-45.95,-46.01,0,*6A
1484143293.39,30462,6.44,72324.3,-12.07,-45.95,-46.01,0,*69
1484143294.63,30463,6.44,72316.8,-12.05,-45.73,-45.95,0,*6C
1484143295.84,30464,6.44,72320.0,-12.05,-45.95,-46.21,0,*6F
1484143297.06,30465,6.44,72320.5,-12.05,-45.87,-46.01,0,*6F
1484143298.33,30466,6.44,72322.3,-12.07,-45.95,-46.15,0,*68
1484143299.55,30467,6.44,72318.5,-12.05,-45.95,-46.21,0,*6C
1484143300.8,30468,6.44,72316.8,-12.05,-46.01,-46.15,0,*6A
1484143302.07,30469,6.44,72316.5,-12.07,-46.15,-46.35,0,*6E
1484143303.31,30470,6.44,72318.8,-12.07,-46.01,-46.21,0,*66
1484143304.58,30471,6.44,72320.0,-12.05,-46.15,-46.41,0,*66
1484143305.83,30472,6.44,72316.5,-12.07,-46.35,-46.55,0,*60
1484143307.1,30473,6.44,72322.5,-12.07,-45.95,-46.15,0,*6C
1484143308.33,30474,6.44,72316.8,-12.07,-45.95,-46.21,0,*6C
1484143309.58,30475,6.44,72322.8,-12.05,-45.87,-46.15,0,*6B
1484143310.82,30476,6.44,72322.0,-12.07,-45.95,-46.21,0,*6E
1484143312.06,30477,6.44,72320.8,-12.09,-46.01,-46.27,0,*69
1484143313.27,30478,6.44,72316.8,-12.09,-45.95,-46.01,0,*6C
1484143314.53,30479,6.44,72316.0,-12.07,-45.73,-45.95,0,*65
1484143315.77,30480,6.44,72318.0,-12.07,-45.87,-45.95,0,*68
1484143317.0,30481,6.44,72322.0,-12.07,-45.87,-45.95,0,*69
1484143318.26,30482,6.44,72320.3,-12.07,-45.73,-45.95,0,*61
1484143319.5,30483,6.44,72322.0,-12.05,-45.67,-45.73,0,*6F
1484143320.75,30484,6.44,72320.3,-12.07,-45.73,-45.87,0,*64
1484143321.97,30485,6.44,72320.0,-12.05,-45.67,-45.87,0,*62
1484143323.23,30486,6.44,72320.5,-12.07,-45.67,-45.73,0,*68
1484143324.47,30487,6.44,72320.0,-12.07,-45.67,-45.95,0,*61
1484143325.7,30488,6.44,72322.8,-12.07,-45.67,-45.87,0,*6D
1484143326.95,30489,6.44,72322.0,-12.07,-45.87,-46.01,0,*6F
1484143328.22,30490,6.44,72320.0,-12.07,-45.95,-46.15,0,*61
1484143329.49,30491,6.44,72320.3,-12.07,-46.15,-46.21,0,*6C
1484143330.73,30492,6.44,72322.8,-12.07,-46.01,-46.55,0,*69
1484143332.0,30493,6.44,72318.8,-12.09,-46.07,-46.49,0,*6D
1484143333.24,30494,6.44,72320.8,-12.09,-46.21,-46.49,0,*6E
1484143334.5,30495,6.44,72322.5,-12.09,-46.07,-46.41,0,*63
1484143335.76,30496,6.44,72320.3,-12.09,-46.07,-46.49,0,*68
1484143337.02,30497,6.44,72320.0,-12.09,-46.07,-46.41,0,*61
1484143338.28,30498,6.44,72322.5,-12.09,-46.07,-46.41,0,*6E
1484143339.52,30499,6.44,72318.8,-12.09,-46.07,-46.21,0,*69
1484143340.76,30500,6.44,72318.8,-12.09,-46.21,-46.49,0,*62
1484143342.05,30501,6.44,72320.5,-12.11,-46.07,-46.49,0,*6E
1484143343.35,30502,6.44,72318.0,-12.11,-46.07,-46.27,0,*65
1484143344.64,30503,6.44,72318.8,-12.11,-46.07,-46.27,0,*64
1484143345.9,30504,6.44,72318.3,-12.09,-46.07,-46.27,0,*6A
1484143347.19,30505,6.44,72318.3,-12.11,-46.07,-46.41,0,*62
1484143348.49,30506,6.44,72318.3,-12.11,-46.07,-46.49,0,*69
1484143349.78,30507,6.44,72316.3,-12.11,-46.27,-46.41,0,*62
1484143351.03,30508,6.44,72320.5,-12.17,-46.15,-46.35,0,*69
1484143352.29,30509,6.44,72322.0,-12.13,-46.07,-46.27,0,*6C
1484143353.52,30510,6.44,72318.5,-12.13,-45.73,-45.95,0,*6E
1484143354.74,30511,6.44,72322.3,-12.13,-45.95,-46.01,0,*69
1484143355.99,30512,6.44,72322.8,-12.13,-46.01,-46.07,0,*62
1484143357.2,30513,6.44,72320.3,-12.13,-45.95,-46.21,0,*69
1484143358.47,30514,6.44,72320.0,-12.13,-46.07,-46.27,0,*60
1484143359.74,30515,6.44,72322.8,-12.17,-46.27,-46.49,0,*6F
1484143361.01,30516,6.44,72318.5,-12.17,-46.15,-46.49,0,*6D
1484143362.28,30517,6.44,72318.5,-12.17,-46.15,-46.49,0,*6C
1484143363.55,30518,6.44,72318.3,-12.17,-46.27,-46.69,0,*60
1484143364.79,30519,6.44,72318.8,-12.17,-46.49,-46.75,0,*64
1484143366.06,30520,6.44,72316.3,-12.17,-46.49,-46.69,0,*63
1484143367.3,30521,6.44,72318.3,-12.17,-46.15,-46.55,0,*64
1484143368.55,30522,6.44,72320.0,-12.19,-46.35,-46.83,0,*60
1484143369.79,30523,6.44,72318.0,-12.21,-46.41,-46.83,0,*69
1484143371.03,30524,6.44,72322.0,-12.19,-46.21,-46.55,0,*68
1484143372.29,30525,6.44,72316.3,-12.19,-46.35,-46.61,0,*6B
1484143373.53,30526,6.44,72318.8,-12.21,-46.55,-46.61,0,*65
1484143374.77,30527,6.44,72318.5,-12.19,-46.21,-46.55,0,*6B
1484143375.98,30528,6.44,72318.8,-12.21,-46.21,-46.55,0,*6F
1484143377.23,30529,6.44,72322.0,-12.19,-46.21,-46.55,0,*65
1484143378.5,30530,6.44,72318.0,-12.19,-46.15,-46.35,0,*6C
1484143379.76,30531,6.44,72316.8,-12.19,-46.07,-46.21,0,*6B
1484143381.01,30532,6.44,72318.8,-12.21,-46.15,-46.35,0,*65
1484143382.28,30533,6.44,72320.0,-12.19,-46.07,-46.21,0,*69
1484143383.54,30534,6.44,72318.8,-12.19,-45.95,-46.15,0,*61
1484143384.81,30535,6.44,72316.0,-12.21,-46.15,-46.41,0,*61
1484143386.05,30536,6.44,72314.8,-12.21,-45.95,-46.15,0,*68
1484143387.29,30537,6.44,72312.8,-12.19,-45.53,-45.67,0,*6E
1484143388.54,30538,6.44,72314.0,-12.19,-45.53,-45.53,0,*66
1484143389.77,30539,6.44,72312.0,-12.19,-45.33,-45.67,0,*66
1484143391.01,30540,6.44,72316.5,-12.19,-45.67,-45.87,0,*67
1484143392.25,30541,6.44,72312.5,-12.19,-45.67,-45.87,0,*66
1484143393.5,30542,6.44,72314.8,-12.19,-45.73,-45.95,0,*63
1484143394.76,30543,6.44,72316.0,-12.19,-45.73,-45.87,0,*61
1484143396.05,30544,6.44,72318.5,-12.19,-45.73,-46.07,0,*6D
1484143397.32,30545,6.44,72316.5,-12.19,-46.07,-46.21,0,*68
1484143398.6,30546,6.44,72318.8,-12.19,-45.47,-45.73,0,*68
1484143399.9,30547,6.44,72314.8,-12.19,-45.27,-45.47,0,*68
1484143401.17,30548,6.44,72316.0,-12.19,-45.53,-45.73,0,*63
1484143402.45,30549,6.44,72318.8,-12.19,-45.73,-45.73,0,*60
1484143403.66,30550,6.44,72318.8,-12.17,-45.67,-46.01,0,*65
1484143404.9,30551,6.44,72316.0,-12.19,-45.67,-45.95,0,*64
1484143406.19,30552,6.44,72314.5,-12.19,-45.73,-46.07,0,*6A
1484143407.41,30553,6.44,72312.5,-12.17,-45.87,-46.01,0,*68
1484143408.64,30554,6.44,72316.8,-12.17,-45.87,-46.07,0,*69
1484143409.88,30555,6.44,72316.0,-12.17,-45.81,-45.87,0,*65
1484143411.12,30556,6.44,72312.3,-12.17,-45.81,-46.01,0,*6B
1484143412.36,30557,6.44,72316.8,-12.17,-45.81,-46.01,0,*6A
1484143413.56,30558,6.44,72316.5,-12.17,-45.87,-45.87,0,*6E
1484143414.83,30559,6.44,72316.0,-12.17,-46.07,-46.27,0,*6D
1484143416.08,30560,6.44,72318.3,-12.17,-46.15,-46.35,0,*67
1484143417.32,30561,6.44,72312.8,-12.19,-46.35,-46.55,0,*6C
1484143418.57,30562,6.44,72314.8,-12.19,-46.55,-46.83,0,*62
1484143419.83,30563,6.44,72312.3,-12.19,-46.55,-46.61,0,*6F
1484143421.07,30564,6.44,72312.3,-12.19,-46.21,-46.55,0,*6C
1484143422.31,30565,6.44,72318.5,-12.21,-46.35,-46.61,0,*64
1484143423.55,30566,6.44,72314.8,-12.21,-46.61,-46.83,0,*6A
1484143424.77,30567,6.44,72316.0,-12.21,-46.55,-46.83,0,*6C
1484143425.99,30568,6.44,72318.5,-12.21,-46.55,-46.83,0,*63
1484143427.23,30569,6.44,72312.0,-12.21,-46.41,-46.83,0,*67
1484143428.49,30570,6.44,72314.5,-12.23,-46.69,-47.09,0,*64
1484143429.75,30571,6.44,72310.8,-12.23,-46.41,-46.83,0,*6C
1484143431.04,30572,6.44,72314.0,-12.23,-46.27,-46.61,0,*63
1484143432.32,30573,6.44,72312.8,-12.23,-46.41,-46.69,0,*6A
1484143433.59,30574,6.44,72312.3,-12.23,-46.49,-46.83,0,*61
1484143434.88,30575,6.44,72312.5,-12.23,-46.49,-46.69,0,*64
1484143436.17,30576,6.44,72308.8,-12.23,-46.27,-46.69,0,*6F
1484143437.47,30577,6.44,72312.8,-12.23,-46.27,-46.49,0,*6C
1484143438.73,30578,6.44,72310.8,-12.23,-46.21,-46.27,0,*6D
1484143439.97,30579,6.44,72310.8,-12.23,-46.21,-46.21,0,*6A
1484143441.21,30580,6.44,72314.0,-12.23,-46.01,-46.21,0,*6E
1484143442.45,30581,6.44,72308.5,-12.23,-46.01,-46.21,0,*6F
1484143443.69,30582,6.44,72310.3,-12.23,-46.01,-46.21,0,*6C
1484143444.98,30583,6.44,72312.3,-12.23,-45.81,-46.15,0,*61
1484143446.24,30584,6.44,72310.3,-12.23,-45.81,-45.95,0,*6D
1484143447.49,30585,6.44,72308.5,-12.23,-45.73,-45.95,0,*61
1484143448.76,30586,6.44,72308.8,-12.23,-45.95,-46.15,0,*61
1484143450.02,30587,6.44,72308.0,-12.23,-45.81,-46.01,0,*60
1484143451.29,30588,6.44,72312.3,-12.23,-45.53,-45.81,0,*6B
1484143452.55,30589,6.44,72308.3,-12.23,-45.73,-46.01,0,*63
1484143453.81,30590,6.44,72310.5,-12.23,-46.21,-46.41,0,*6B
1484143455.06,30591,6.44,72310.3,-12.23,-46.01,-46.21,0,*6E
1484143456.35,30592,6.44,72310.5,-12.23,-46.15,-46.27,0,*6E
1484143457.61,30593,6.44,72308.3,-12.23,-45.73,-46.01,0,*68
1484143458.87,30594,6.44,72314.3,-12.23,-45.81,-45.95,0,*6C
1484143460.13,30595,6.44,72314.5,-12.23,-45.81,-46.01,0,*63
1484143461.4,30596,6.44,72318.5,-12.23,-45.95,-46.15,0,*60
1484143462.7,30597,6.44,72314.3,-12.23,-46.15,-46.27,0,*6B
1484143463.94,30598,6.44,72312.5,-12.23,-46.01,-46.21,0,*67
1484143465.22,30599,6.44,72314.3,-12.23,-45.73,-45.81,0,*69
1484143466.48,30600,6.44,72314.5,-12.23,-45.81,-45.95,0,*62
1484143467.76,30601,6.44,72314.3,-12.23,-45.81,-46.15,0,*68
1484143469.03,30602,6.44,72310.5,-12.23,-45.73,-46.01,0,*63
1484143470.31,30603,6.44,72314.5,-12.23,-45.73,-45.81,0,*69
1484143471.57,30604,6.44,72312.0,-12.23,-45.53,-45.81,0,*6C
1484143472.84,30605,6.44,72314.3,-12.23,-45.53,-45.81,0,*6D
1484143474.08,30606,6.44,72312.5,-12.23,-45.61,-45.61,0,*61
1484143475.35,30607,6.44,72312.5,-12.23,-45.53,-45.81,0,*6F
1484143476.62,30608,6.44,72314.8,-12.23,-45.61,-45.81,0,*61
1484143477.87,30609,6.44,72312.0,-12.23,-45.73,-45.95,0,*66
1484143479.16,30610,6.44,72314.5,-12.23,-45.81,-46.15,0,*68
1484143480.42,30611,6.44,72314.0,-12.23,-45.95,-46.15,0,*6C
1484143481.68,30612,6.44,72314.5,-12.23,-45.73,-45.95,0,*6C
1484143482.95,30613,6.44,72314.3,-12.23,-46.01,-46.27,0,*61
1484143484.21,30614,6.44,72312.0,-12.23,-46.15,-46.21,0,*65
1484143485.46,30615,6.44,72316.3,-12.23,-46.01,-46.21,0,*61
1484143486.72,30616,6.44,72316.8,-12.23,-45.95,-46.15,0,*6B
1484143487.97,30617,6.44,72316.3,-12.23,-45.95,-46.01,0,*6F
1484143489.26,30618,6.44,72316.3,-12.27,-46.07,-46.27,0,*68
1484143490.5,30619,6.44,72314.5,-12.23,-45.95,-46.21,0,*63
1484143491.77,30620,6.44,72318.3,-12.27,-46.01,-46.07,0,*67
1484143493.01,30621,6.44,72312.3,-12.29,-46.21,-46.27,0,*68
1484143494.28,30622,6.44,72316.0,-12.27,-46.21,-46.49,0,*6D
1484143495.52,30623,6.44,72316.3,-12.27,-46.21,-46.35,0,*67
1484143496.82,30624,6.44,72316.8,-12.23,-46.15,-46.27,0,*60
1484143498.06,30625,6.44,72318.0,-12.27,-46.21,-46.35,0,*61
1484143499.27,30626,6.5,72322.3,-12.29,-46.21,-46.35,0,*6C
1484143500.57,30627,6.44,72314.0,-12.27,-46.07,-46.27,0,*64
1484143501.84,30628,6.44,72318.8,-12.27,-46.01,-46.27,0,*6D
1484143503.08,30629,6.44,72318.5,-12.29,-46.01,-46.27,0,*62
1484143504.3,30630,6.44,72318.0,-12.29,-46.01,-46.21,0,*6C
1484143505.55,30631,6.44,72316.3,-12.29,-46.07,-46.35,0,*6E
1484143506.82,30632,6.44,72316.0,-12.29,-46.07,-46.07,0,*6C
1484143508.07,30633,6.44,72316.5,-12.29,-46.07,-46.35,0,*6C
1484143509.28,30634,6.44,72318.5,-12.29,-46.21,-46.35,0,*6F
1484143510.52,30635,6.44,72318.3,-12.29,-45.87,-46.27,0,*62
1484143511.77,30636,6.44,72318.8,-12.29,-46.01,-46.27,0,*6C
1484143513.02,30637,6.44,72316.5,-12.29,-46.01,-46.07,0,*6F
1484143514.24,30638,6.44,72318.0,-12.29,-46.01,-46.35,0,*61
1484143515.49,30639,6.44,72320.3,-12.29,-46.07,-46.21,0,*63
1484143516.76,30640,6.44,72318.0,-12.29,-46.07,-46.27,0,*6B
1484143518.0,30641,6.44,72316.3,-12.33,-46.07,-46.35,0,*62
1484143519.25,30642,6.44,72322.5,-12.31,-46.35,-46.55,0,*64
1484143520.52,30643,6.44,72322.8,-12.31,-46.27,-46.35,0,*60
1484143521.8,30644,6.44,72316.8,-12.31,-46.27,-46.35,0,*67
1484143523.01,30645,6.44,72320.5,-12.33,-46.35,-46.55,0,*61
1484143524.31,30646,6.44,72316.8,-12.31,-46.27,-46.61,0,*64
1484143525.58,30647,6.44,72320.3,-12.33,-46.15,-46.41,0,*64
1484143526.8,30648,6.44,72322.0,-12.33,-46.35,-46.55,0,*6C
1484143528.04,30649,6.44,72316.8,-12.33,-46.27,-46.55,0,*6E
1484143529.28,30650,6.44,72320.8,-12.33,-46.35,-46.41,0,*60
1484143530.56,30651,6.44,72316.0,-12.31,-46.27,-46.55,0,*65
1484143531.8,30652,6.44,72316.8,-12.33,-46.35,-46.61,0,*60
1484143533.02,30653,6.44,72318.5,-12.33,-46.35,-46.55,0,*66
1484143534.25,30654,6.44,72316.8,-12.33,-46.35,-46.61,0,*66
1484143535.5,30655,6.44,72322.3,-12.33,-46.07,-46.35,0,*67
1484143536.74,30656,6.44,72318.8,-12.33,-46.15,-46.35,0,*67
1484143538.01,30657,6.44,72316.8,-12.35,-45.95,-46.27,0,*68
1484143539.27,30658,6.44,72320.5,-12.35,-45.73,-45.95,0,*65
1484143540.55,30659,6.44,72320.5,-12.35,-45.73,-46.15,0,*6F
1484143541.82,30660,6.44,72318.3,-12.35,-45.87,-46.15,0,*6E
1484143543.09,30661,6.44,72318.3,-12.35,-45.95,-46.15,0,*6C
1484143544.36,30662,6.44,72322.5,-12.35,-46.15,-46.35,0,*66
1484143545.63,30663,6.44,72320.0,-12.35,-46.27,-46.35,0,*66
1484143546.9,30664,6.44,72316.8,-12.35,-45.95,-46.27,0,*68
1484143548.17,30665,6.44,72318.3,-12.35,-45.87,-46.15,0,*6B
1484143549.43,30666,6.44,72320.5,-12.39,-45.73,-46.07,0,*6C
1484143550.67,30667,6.44,72318.8,-12.35,-45.67,-45.95,0,*6C
1484143551.91,30668,6.44,72320.8,-12.39,-45.73,-46.01,0,*64
1484143553.14,30669,6.44,72318.5,-12.39,-45.73,-45.95,0,*6B
1484143554.43,30670,6.5,72322.8,-12.35,-45.47,-45.73,0,*60
1484143555.7,30671,6.44,72316.8,-12.35,-45.53,-45.73,0,*64
1484143556.96,30672,6.44,72318.3,-12.35,-45.53,-45.73,0,*67
1484143558.21,30673,6.44,72318.3,-12.35,-45.53,-45.87,0,*6D
1484143559.42,30674,6.44,72316.0,-12.33,-45.67,-45.87,0,*6B
1484143560.71,30675,6.44,72318.0,-12.35,-45.73,-46.07,0,*62
1484143561.97,30676,6.44,72316.8,-12.35,-45.73,-45.95,0,*69
1484143563.2,30677,6.44,72320.0,-12.35,-45.87,-45.95,0,*63
1484143564.44,30678,6.44,72318.5,-12.35,-45.67,-45.95,0,*62
1484143565.67,30679,6.44,72322.8,-12.33,-45.73,-45.87,0,*63
1484143566.93,30680,6.44,72318.5,-12.33,-45.73,-46.07,0,*6E
1484143568.16,30681,6.44,72318.5,-12.33,-45.73,-45.95,0,*67
1484143569.4,30682,6.44,72316.8,-12.33,-45.73,-45.95,0,*64
1484143570.64,30683,6.44,72318.3,-12.33,-45.95,-46.27,0,*67
1484143571.9,30684,6.44,72318.8,-12.33,-46.07,-46.27,0,*68
1484143573.14,30685,6.44,72316.3,-12.33,-45.87,-46.07,0,*60
1484143574.37,30686,6.44,72316.0,-12.33,-45.73,-45.95,0,*60
1484143575.6,30687,6.44,72320.0,-12.33,-45.73,-45.95,0,*61
1484143576.85,30688,6.44,72316.8,-12.35,-45.53,-45.87,0,*69
1484143578.11,30689,6.44,72314.8,-12.35,-45.73,-45.87,0,*6A
1484143579.32,30690,6.44,72318.3,-12.33,-45.67,-45.87,0,*61
1484143580.59,30691,6.44,72318.3,-12.33,-46.07,-46.27,0,*6C
1484143581.83,30692,6.44,72314.0,-12.33,-46.15,-46.35,0,*6F
1484143583.09,30693,6.44,72316.5,-12.33,-45.73,-46.07,0,*6C
1484143584.32,30694,6.44,72316.5,-12.33,-45.73,-45.95,0,*63
1484143585.55,30695,6.44,72316.0,-12.33,-45.73,-45.87,0,*61
1484143586.77,30696,6.44,72314.5,-12.33,-45.67,-45.95,0,*64
1484143588.03,30697,6.44,72316.0,-12.35,-45.67,-45.73,0,*6B
1484143589.27,30698,6.44,72312.8,-12.35,-45.53,-45.87,0,*68
1484143590.53,30699,6.44,72314.5,-12.33,-45.73,-46.07,0,*66
1484143591.8,30700,6.44,72318.0,-12.31,-45.87,-46.15,0,*6D
1484143593.01,30701,6.44,72314.3,-12.33,-45.67,-45.95,0,*6B
1484143594.28,30702,6.44,72314.8,-12.33,-45.73,-46.07,0,*65
1484143595.52,30703,6.44,72316.0,-12.33,-46.27,-46.35,0,*67
1484143596.76,30704,6.44,72316.3,-12.33,-46.35,-46.61,0,*62
1484143597.98,30705,6.44,72316.5,-12.33,-46.35,-46.55,0,*64
1484143599.22,30706,6.44,72318.8,-12.35,-46.35,-46.55,0,*61
1484143600.47,30707,6.44,72312.8,-12.39,-46.21,-46.49,0,*64
1484143601.76,30708,6.5,72316.5,-12.35,-46.07,-46.41,0,*6B
1484143603.03,30709,6.5,72318.8,-12.35,-46.35,-46.41,0,*6B
1484143604.3,30710,6.44,72316.0,-12.35,-46.27,-46.35,0,*63
1484143605.59,30711,6.44,72316.8,-12.35,-46.15,-46.41,0,*60
1484143606.83,30712,6.44,72316.8,-12.39,-46.21,-46.41,0,*68
1484143608.08,30713,6.44,72318.8,-12.39,-46.35,-46.49,0,*64
1484143609.35,30714,6.44,72316.0,-12.35,-46.15,-46.35,0,*66
1484143610.65,30715,6.44,72318.0,-12.35,-46.15,-46.27,0,*64
1484143611.92,30716,6.44,72318.0,-12.39,-46.15,-46.41,0,*6B
1484143613.19,30717,6.44,72316.5,-12.35,-45.87,-46.07,0,*6C
1484143614.46,30718,6.44,72316.8,-12.35,-45.95,-46.07,0,*60
1484143615.7,30719,6.44,72312.5,-12.39,-45.95,-46.15,0,*6E
1484143616.94,30720,6.44,72318.3,-12.39,-45.87,-46.27,0,*66
1484143618.19,30721,6.44,72314.3,-12.39,-46.15,-46.35,0,*6C
1484143619.43,30722,6.44,72314.5,-12.39,-46.35,-46.41,0,*6E
1484143620.68,30723,6.44,72316.8,-12.39,-46.21,-46.49,0,*62
1484143621.92,30724,6.44,72316.0,-12.39,-46.35,-46.61,0,*6A
1484143623.18,30725,6.44,72314.8,-12.39,-46.41,-46.61,0,*68
1484143624.42,30726,6.5,72318.5,-12.39,-46.01,-46.41,0,*6D
1484143625.64,30727,6.44,72318.0,-12.39,-45.95,-46.21,0,*64
1484143626.88,30728,6.44,72318.3,-12.39,-45.95,-46.15,0,*6C
1484143628.17,30729,6.44,72314.3,-12.41,-46.07,-46.27,0,*6B
1484143629.39,30730,6.44,72318.3,-12.39,-45.95,-46.01,0,*60
1484143630.61,30731,6.44,72316.8,-12.39,-46.01,-46.21,0,*6D
1484143631.87,30732,6.5,72316.5,-12.41,-46.21,-46.41,0,*65
1484143633.16,30733,6.44,72314.3,-12.41,-46.07,-46.41,0,*60
1484143634.4,30734,6.44,72314.3,-12.39,-46.15,-46.35,0,*68
1484143635.67,30735,6.44,72318.3,-12.39,-46.15,-46.41,0,*6A
1484143636.93,30736,6.44,72314.3,-12.41,-46.21,-46.41,0,*61
1484143638.2,30737,6.44,72316.8,-12.41,-46.49,-46.55,0,*6B
1484143639.47,30738,6.44,72318.3,-12.43,-46.49,-46.69,0,*69
1484143640.74,30739,6.44,72318.8,-12.43,-46.49,-46.49,0,*6A
1484143642.03,30740,6.5,72316.5,-12.41,-46.49,-46.49,0,*66
1484143643.32,30741,6.44,72316.5,-12.41,-46.27,-46.49,0,*6F
1484143644.59,30742,6.44,72314.5,-12.41,-46.21,-46.49,0,*6A
1484143645.83,30743,6.44,72312.8,-12.43,-46.21,-46.41,0,*61
1484143647.04,30744,6.44,72314.3,-12.43,-46.21,-46.55,0,*63
1484143648.29,30745,6.44,72312.8,-12.43,-46.01,-46.27,0,*65
1484143649.56,30746,6.5,72318.5,-12.43,-46.27,-46.41,0,*62
1484143650.82,30747,6.44,72312.3,-12.41,-46.01,-46.07,0,*67
1484143652.06,30748,6.44,72314.0,-12.41,-45.61,-45.87,0,*66
1484143653.29,30749,6.44,72314.0,-12.41,-45.61,-45.67,0,*69
1484143654.51,30750,6.44,72314.3,-12.43,-45.61,-45.87,0,*6D
1484143655.74,30751,6.44,72318.3,-12.41,-45.61,-45.87,0,*6E
1484143656.99,30752,6.44,72312.3,-12.41,-45.61,-46.01,0,*60
1484143658.24,30753,6.44,72316.5,-12.41,-45.81,-45.87,0,*62
1484143659.47,30754,6.5,72316.8,-12.41,-45.41,-45.67,0,*67
1484143660.76,30755,6.44,72312.8,-12.41,-45.47,-45.81,0,*68
1484143661.97,30756,6.44,72314.5,-12.39,-45.41,-45.61,0,*6C
1484143663.18,30757,6.44,72312.8,-12.39,-45.33,-45.61,0,*68
1484143664.47,30758,6.44,72316.3,-12.41,-45.47,-45.81,0,*65
1484143665.73,30759,6.5,72320.5,-12.41,-45.61,-45.81,0,*60
1484143667.0,30760,6.44,72314.3,-12.43,-45.47,-45.81,0,*6C
1484143668.26,30761,6.44,72316.0,-12.41,-45.81,-46.01,0,*6E
1484143669.48,30762,6.5,72316.8,-12.39,-45.95,-46.01,0,*67
1484143670.76,30763,6.44,72316.0,-12.41,-45.81,-46.07,0,*6A
1484143672.0,30764,6.44,72316.0,-12.41,-45.87,-46.01,0,*6D
1484143673.26,30765,6.44,72316.0,-12.41,-45.81,-46.01,0,*6A
1484143674.48,30766,6.44,72318.3,-12.43,-46.01,-46.21,0,*62
1484143675.71,30767,6.44,72318.8,-12.39,-45.95,-46.01,0,*62
1484143676.95,30768,6.44,72316.3,-12.39,-45.81,-46.01,0,*68
1484143678.19,30769,6.44,72318.5,-12.39,-45.95,-46.15,0,*69
1484143679.43,30770,6.44,72318.0,-12.39,-45.81,-45.95,0,*6F
1484143680.67,30771,6.5,72318.5,-12.39,-45.81,-46.01,0,*60
1484143681.88,30772,6.44,72316.8,-12.39,-45.95,-46.21,0,*64
1484143683.15,30773,6.44,72312.0,-12.41,-46.01,-46.27,0,*62
1484143684.44,30774,6.44,72318.0,-12.41,-46.07,-46.27,0,*63
1484143685.68,30775,6.44,72314.3,-12.41,-46.01,-46.21,0,*62
1484143686.94,30776,6.44,72316.5,-12.41,-46.07,-46.21,0,*67
1484143688.19,30777,6.44,72314.8,-12.43,-46.01,-46.27,0,*64
1484143689.41,30778,6.44,72316.5,-12.39,-45.95,-46.01,0,*6C
1484143690.7,30779,6.44,72316.0,-12.41,-46.07,-46.27,0,*6E
1484143691.99,30780,6.5,72316.8,-12.41,-46.07,-46.27,0,*68
1484143693.23,30781,6.44,72318.3,-12.43,-46.27,-46.55,0,*6C
1484143694.47,30782,6.5,72318.3,-12.43,-46.41,-46.55,0,*6F
1484143695.74,30783,6.5,72316.5,-12.41,-46.27,-46.55,0,*6C
1484143696.98,30784,6.44,72316.0,-12.43,-46.27,-46.55,0,*69
1484143698.23,30785,6.44,72316.5,-12.43,-46.27,-46.55,0,*68
1484143699.49,30786,6.44,72314.3,-12.43,-46.41,-46.69,0,*64
1484143700.75,30787,6.5,72316.3,-12.43,-46.49,-46.69,0,*6D
1484143702.04,30788,6.44,72314.5,-12.45,-46.41,-46.69,0,*6C